Location: Unspecified
(0.0000°N, 0.0000°E)
Time: 09:20:55
(UTC+00:00)

ISS - Pass Details

Date: 07 November 2025
Orbit: 415 x 421 km, 51.6° (Epoch: 12 November)

Event Time Altitude Azimuth Distance (km) Brightness Sun altitude
Rises 18:33:22 0° 241° (WSW) 2,348 1.9 -11.9°
Reaches altitude 10° 18:35:54 10° 260° (W) 1,482 0.5 -12.5°
Maximum altitude 18:38:16 18° 306° (NW) 1,091 -1.2 -13.1°
Drops below altitude 10° 18:40:36 10° 351° (N) 1,475 -1.1 -13.6°
Enters shadow 18:42:15 - 6° (N) 2,009 -0.5 -14.0°
